Weather History for KSFB - October, 2012

Change the Weather History Date:

Wednesday, October 3, 2012

  Actual Average Record
Temperature  
Mean Temperature 82 °F -  
Max Temperature 90 °F 86 °F 94 °F (1956)
Min Temperature 73 °F 66 °F 53 °F (1984)
Cooling Degree Days 16    
Growing Degree Days 32 (Base 50)    
Moisture  
Dew Point 72 °F    
Average Humidity 81    
Maximum Humidity 93    
Minimum Humidity 55    
Precipitation  
Precipitation 0.21 in - - ()
Sea Level Pressure  
Sea Level Pressure 30.10 in    
Wind  
Wind Speed 6 mph (South)    
Max Wind Speed 16 mph    
Max Gust Speed 26 mph    
Visibility 10 miles    
Events Rain    
Averages and records for this station are not official NWS values.
T = Trace of Precipitation, MM = Missing Value Source: NWS Daily Summary

Daily Weather History Graph

Daily Weather History Graph

Search for Another Location

Airport or City:

Trip Planner

Search our weather history database for the weather conditions in past years. The results will help you decide how hot, cold, wet, or windy it might be!

Date:

Astronomy

Oct. 03, 2012 Rise Set
Actual Time 7:19 AM EDT 7:07 PM EDT
Civil Twilight 6:55 AM EDT 7:31 PM EDT
Nautical Twilight 6:28 AM EDT 7:58 PM EDT
Astronomical Twilight 6:00 AM EDT 8:26 PM EDT
Moon 9:18 PM EDT (10/3) 10:22 AM EDT (10/3)
Length of Visible Light 12h 35m
Length of Day
11h 48m
Waning Gibbous, 89% of the Moon is Illuminated
Oct 3
Waning Gibbous
Oct 8
Last Quarter
Oct 15
New
Oct 21
First Quarter
Oct 29
Full

Hourly Weather History & Observations

Time (EDT) Temp. Heat Index Dew Point Humidity Pressure Visibility Wind Dir Wind Speed Gust Speed Precip Events Conditions
12:53 AM 75.0 °F - 72.0 °F 90% 30.03 in 10.0 mi South 5.8 mph - N/A   Partly Cloudy
1:53 AM 75.0 °F - 72.0 °F 90% 30.03 in 10.0 mi SSE 3.5 mph - N/A   Partly Cloudy
2:53 AM 73.9 °F - 72.0 °F 93% 30.03 in 10.0 mi South 4.6 mph - N/A   Clear
3:53 AM 75.0 °F - 72.0 °F 90% 30.04 in 10.0 mi South 5.8 mph - N/A   Mostly Cloudy
4:53 AM 75.0 °F - 71.1 °F 87% 30.05 in 10.0 mi South 5.8 mph - N/A   Mostly Cloudy
5:53 AM 75.0 °F - 71.1 °F 87% 30.07 in 10.0 mi South 5.8 mph - 0.01 in Rain Light Rain
6:53 AM 75.0 °F - 72.0 °F 90% 30.08 in 10.0 mi SSE 4.6 mph - 0.00 in   Overcast
7:32 AM 75.2 °F - 71.6 °F 89% 30.09 in 10.0 mi SSE 5.8 mph - N/A   Overcast
7:53 AM 75.0 °F - 72.0 °F 90% 30.09 in 10.0 mi South 4.6 mph - N/A   Overcast
8:00 AM 75.2 °F - 71.6 °F 89% 30.09 in 10.0 mi South 5.8 mph - N/A   Mostly Cloudy
8:53 AM 75.9 °F - 73.0 °F 91% 30.10 in 10.0 mi South 3.5 mph - N/A   Mostly Cloudy
9:14 AM 77.0 °F - 73.4 °F 89% 30.11 in 10.0 mi South 4.6 mph - N/A   Mostly Cloudy
9:53 AM 77.0 °F - 73.9 °F 90% 30.13 in 10.0 mi SSE 6.9 mph - N/A   Overcast
10:53 AM 79.0 °F - 73.0 °F 82% 30.13 in 10.0 mi South 5.8 mph - N/A   Scattered Clouds
11:53 AM 82.9 °F 89.4 °F 73.9 °F 74% 30.12 in 10.0 mi South 6.9 mph - N/A   Mostly Cloudy
12:53 PM 86.0 °F 92.2 °F 72.0 °F 63% 30.11 in 10.0 mi SSW 8.1 mph - N/A   Scattered Clouds
1:53 PM 86.0 °F 92.2 °F 72.0 °F 63% 30.10 in 10.0 mi South 4.6 mph - N/A   Partly Cloudy
2:53 PM 88.0 °F 93.8 °F 71.1 °F 57% 30.08 in 10.0 mi SW 9.2 mph - N/A   Clear
3:53 PM 90.0 °F 96.9 °F 72.0 °F 55% 30.08 in 10.0 mi SW 9.2 mph - N/A   Partly Cloudy
4:48 PM 82.4 °F 86.3 °F 69.8 °F 66% 30.09 in 10.0 mi WNW 16.1 mph - N/A   Mostly Cloudy
4:53 PM 81.0 °F 84.1 °F 69.1 °F 67% 30.10 in 10.0 mi West 16.1 mph 26.5 mph 0.00 in Rain Light Rain
5:01 PM 78.8 °F - 69.8 °F 74% 30.11 in 1.2 mi West 16.1 mph 26.5 mph 0.11 in Rain Heavy Rain
5:15 PM 78.8 °F - 69.8 °F 74% 30.12 in 3.0 mi West 16.1 mph - 0.20 in Rain Light Rain
5:53 PM 78.1 °F - 71.1 °F 79% 30.09 in 10.0 mi West 11.5 mph - 0.20 in   Clear
6:53 PM 78.1 °F - 72.0 °F 81% 30.15 in 10.0 mi East 4.6 mph - N/A   Scattered Clouds
7:53 PM 77.0 °F - 72.0 °F 84% 30.15 in 10.0 mi ENE 4.6 mph - N/A   Mostly Cloudy
9:53 PM 75.0 °F - 72.0 °F 90% 30.17 in 10.0 mi East 5.8 mph - N/A   Clear
10:53 PM 73.9 °F - 71.1 °F 91% 30.18 in 10.0 mi Calm Calm - N/A   Clear
11:53 PM 73.9 °F - 71.1 °F 91% 30.18 in 10.0 mi Calm Calm - N/A   Clear